EHI
1 1 0 2 7 11 7 2 0 0 0 0 0 0 1 2 2 1 3 25 63 73 59 59 60 42 20 9 5 2 1 1 1 0 0 0 0 0 0 0 0 0 0 0 0 0 0 0 0
1 0 1 5 10 8 3 1 0 0 0 0 0 0 1 1 1 2 7 33 65 66 48 52 59 46 25 12 6 4 3 2 2 1 1 1 1 0 0 0 0 0 0 0 0 0 0 0 0
0 0 1 7 11 6 0 0 0 0 0 0 0 1 2 1 0 4 13 39 61 53 40 52 62 52 31 16 9 7 5 4 3 3 2 3 2 1 1 2 1 0 0 0 0 0 0 0 0
0 0 1 5 6 3 0 0 0 0 1 1 1 3 4 2 2 7 15 35 50 46 42 56 65 56 35 17 10 8 6 4 3 3 4 4 4 3 4 4 2 0 1 1 1 0 0 0 0
0 0 2 2 1 0 0 0 0 1 2 2 3 8 8 4 4 8 13 25 39 47 51 57 63 55 35 17 8 6 5 3 1 2 5 6 5 5 7 8 6 4 4 4 4 2 1 0 0
0 0 1 1 0 0 0 0 0 1 3 4 6 10 11 6 5 7 11 17 33 53 59 56 56 50 33 16 7 3 2 1 0 2 5 6 6 6 9 12 11 9 10 10 8 6 3 1 0
0 0 0 0 0 0 0 0 0 1 2 4 7 12 13 8 4 6 8 13 33 58 62 52 48 43 29 15 7 3 1 1 0 1 2 4 5 6 8 12 15 17 17 16 13 9 6 4 2
0 0 0 0 0 0 0 0 0 0 2 5 10 16 16 10 4 4 8 12 32 57 62 51 46 39 25 13 10 8 6 4 2 1 1 2 3 5 7 12 19 23 22 20 17 13 10 8 7
0 0 0 0 0 0 0 0 0 1 4 8 14 19 18 10 4 5 8 14 32 56 62 54 51 42 24 16 20 18 13 10 8 5 5 4 4 4 8 19 31 33 29 24 21 18 15 12 8
0 0 0 0 0 0 0 0 1 3 9 14 17 17 15 9 8 10 13 23 43 59 60 58 60 49 27 26 36 28 20 23 18 14 18 16 10 7 13 31 49 50 41 32 26 23 19 12 7
0 0 0 0 0 0 0 1 3 7 12 16 18 16 15 14 15 21 26 39 59 62 54 59 67 56 36 40 50 38 33 42 37 30 36 33 23 17 23 44 62 63 53 40 33 29 22 11 6
0 0 0 0 0 0 0 1 5 10 13 17 22 25 25 26 29 35 41 53 64 61 52 59 69 65 54 55 59 50 47 56 55 53 54 50 42 36 39 55 67 66 58 48 40 37 28 17 12
0 0 0 0 0 0 0 2 7 12 15 21 30 36 39 42 47 52 56 62 67 63 58 63 71 73 71 71 69 61 59 62 66 70 70 66 63 59 59 66 70 64 58 53 49 45 39 30 23
0 0 0 0 0 0 1 4 10 14 19 28 38 45 52 58 64 68 71 73 71 67 67 72 75 78 79 78 73 68 65 67 70 74 75 74 73 73 72 71 68 62 56 53 51 49 46 40 33
0 0 0 0 0 0 1 6 12 17 24 35 45 53 61 67 71 75 78 77 74 72 74 77 77 77 79 78 73 68 65 67 71 73 73 72 71 72 71 67 63 60 56 51 47 45 44 38 32
0 0 0 0 0 0 1 6 12 19 30 42 49 53 57 62 67 70 73 74 75 75 77 75 73 73 74 73 70 65 61 63 67 69 66 62 61 60 58 56 55 54 50 44 39 36 33 29 26
0 0 0 0 0 0 3 9 14 22 35 46 47 44 42 46 52 56 60 65 69 71 71 70 69 69 67 65 63 61 57 56 58 57 51 46 43 41 40 41 41 39 36 34 29 26 25 23 22
0 0 0 0 0 1 6 13 18 23 34 42 40 34 31 32 36 38 41 47 53 59 64 66 67 66 62 60 58 54 50 46 46 42 34 29 26 24 25 26 26 25 25 24 21 19 19 18 16
0 0 0 0 1 2 8 16 21 25 30 34 33 29 25 24 24 24 25 30 37 46 54 58 59 56 54 55 52 46 41 38 34 27 20 16 14 14 15 17 18 19 18 17 14 12 12 11 8
0 0 0 0 1 4 10 19 25 27 27 26 25 22 18 17 17 17 17 19 25 31 37 43 46 44 41 41 37 32 29 27 23 18 13 9 8 7 8 11 15 15 14 12 10 9 9 7 4
0 0 0 0 1 4 11 21 29 28 22 17 15 13 10 10 12 13 13 14 16 18 21 27 33 33 29 25 20 16 15 15 14 11 8 7 5 4 5 7 10 11 10 9 8 8 8 5 2
0 0 0 0 0 3 7 16 25 24 15 8 7 6 5 5 7 9 9 9 8 8 11 17 23 24 20 16 11 8 7 8 7 5 4 5 4 3 4 4 6 8 6 5 5 6 5 3 1
0 0 0 0 0 1 2 8 15 16 11 6 5 4 3 3 4 6 6 6 4 3 5 12 17 18 17 14 10 7 5 4 3 2 2 3 3 2 2 3 4 4 3 2 2 2 2 1 0
0 0 0 0 0 0 0 2 4 7 7 7 6 3 2 2 3 4 5 4 3 2 3 9 17 21 20 17 12 7 4 3 2 1 2 2 1 1 1 1 1 1 1 1 1 1 1 0 0
0 0 0 0 0 0 0 0 1 2 4 5 3 1 1 1 2 3 3 4 3 3 4 8 18 24 22 18 14 9 5 3 2 2 2 2 1 0 0 0 0 0 0 0 0 1 1 0 0
0 0 0 0 0 0 1 2 2 1 1 2 1 1 0 1 2 3 2 2 2 4 6 9 16 22 22 18 15 11 8 6 3 1 1 1 0 0 0 0 0 0 0 0 0 0 0 0 0
0 0 0 0 0 0 1 3 2 1 0 1 1 1 0 1 2 2 2 2 2 4 7 8 12 16 17 16 13 10 8 7 3 1 0 0 0 0 0 0 0 0 0 0 0 0 0 0 0
0 0 0 0 0 0 1 2 1 0 0 0 1 1 0 0 1 2 2 3 3 3 4 6 8 10 11 12 11 7 6 6 3 1 1 1 0 0 0 0 0 0 0 0 0 0 0 0 0
0 0 0 0 0 0 0 0 1 0 0 0 0 0 0 0 0 1 2 3 3 2 2 3 4 5 7 7 7 5 5 4 2 2 2 2 1 0 0 0 0 0 0 0 0 0 0 0 0
0 0 0 0 0 0 0 0 1 0 0 0 0 0 0 0 0 0 1 2 2 1 1 1 3 4 5 4 4 4 3 2 1 1 1 2 2 1 0 0 0 0 0 0 0 0 0 0 0
Wind_Speed
12 12 10 7 6 6 7 6 8 10 10 9 8 8 14 16 12 9 8 13 21 22 19 18 17 15 13 12 12 12 12 12 12 11 11 10 10 9 9 8 8 8 9 9 9 9 9 9 9
12 13 10 6 6 3 3 4 6 9 8 6 7 9 14 16 12 11 11 15 22 21 18 17 18 16 14 13 12 12 12 12 11 11 11 10 10 9 9 8 8 7 8 8 8 8 8 8 8
13 14 8 8 8 5 2 3 5 5 6 6 6 10 11 10 10 9 13 17 21 19 17 18 19 16 15 13 13 12 12 11 11 11 11 10 10 9 9 8 8 7 7 8 8 8 8 8 7
9 10 8 10 13 8 3 5 5 5 5 4 5 10 12 8 7 12 15 18 19 18 18 18 18 17 15 14 13 12 12 11 11 11 10 10 10 9 9 8 8 7 7 8 7 7 7 7 7
10 8 12 13 12 8 3 6 6 6 6 6 6 13 12 11 13 15 15 17 18 18 18 18 18 17 15 13 12 12 11 11 11 10 10 10 9 9 9 8 8 8 7 7 7 7 7 7 7
8 9 13 11 10 7 3 5 6 6 6 7 6 10 10 10 12 13 15 14 17 19 19 17 17 16 14 13 12 11 11 10 10 10 10 10 9 9 9 9 9 9 8 8 8 8 8 8 7
11 12 17 19 14 8 3 4 5 5 5 5 5 8 10 10 10 12 12 12 16 19 18 15 14 14 14 13 12 12 11 10 10 10 10 10 9 9 9 9 9 9 9 9 8 9 9 9 9
11 12 19 18 14 8 4 4 4 5 4 4 5 7 10 10 11 13 11 10 14 18 17 15 14 13 12 12 13 12 12 11 11 10 10 10 10 10 11 10 11 11 11 10 10 10 10 10 11
15 13 16 18 13 8 6 7 6 5 3 6 10 11 11 13 13 13 11 10 11 14 14 15 15 13 12 12 14 13 12 12 11 10 12 10 9 10 11 14 14 15 13 13 12 12 12 11 12
14 13 18 17 14 13 11 10 9 6 5 8 10 10 9 9 10 11 10 11 10 11 12 12 14 13 11 10 10 9 10 10 10 8 10 9 8 7 9 14 17 17 16 15 14 13 12 11 8
17 18 18 18 16 14 13 12 10 8 6 9 8 6 5 6 8 9 8 8 9 7 8 9 9 7 7 5 8 6 6 7 10 9 9 7 6 6 5 4 9 11 13 10 11 11 9 9 7
19 18 17 17 15 13 13 11 7 6 6 7 7 6 4 2 6 8 8 7 9 7 6 6 8 5 2 2 4 4 3 4 5 7 7 6 3 3 3 2 4 6 6 7 6 6 9 9 9
17 17 17 15 14 12 11 9 4 3 6 8 8 7 5 4 4 4 7 6 7 5 4 4 5 5 2 1 2 1 1 2 3 3 5 4 3 3 3 2 2 3 3 5 6 5 6 7 7
16 15 15 13 12 9 9 6 3 3 6 8 9 9 8 9 10 10 9 7 5 4 4 4 4 4 2 0 1 3 3 2 1 1 1 3 3 3 2 3 2 3 3 3 4 6 6 6 5
14 16 16 15 12 8 7 4 2 5 7 8 10 10 12 12 11 11 9 7 4 4 5 5 5 4 3 1 2 2 3 2 2 1 1 1 3 3 3 3 4 4 4 5 4 5 4 5 6
16 16 16 13 9 7 7 3 5 6 8 9 10 10 10 10 11 10 10 9 9 8 8 7 4 4 3 2 1 2 3 3 3 2 2 3 3 3 3 4 5 4 4 4 4 4 4 4 4
16 16 13 5 5 4 4 7 6 8 10 11 10 9 9 9 10 9 10 10 10 9 8 8 7 6 4 2 1 2 1 2 2 2 2 2 3 3 3 3 3 3 3 4 5 4 4 4 4
9 9 6 2 4 3 3 7 8 7 9 12 10 9 8 9 9 8 8 8 9 8 8 6 6 5 3 3 2 2 2 2 1 2 2 3 3 4 3 3 3 4 3 4 4 4 4 4 3
10 9 4 3 5 3 3 6 7 8 9 9 10 9 9 8 8 7 7 7 7 7 6 5 5 4 3 2 2 2 2 2 2 1 2 3 3 3 3 3 3 3 3 4 5 4 5 5 3
10 9 7 4 3 5 5 4 6 7 8 7 8 8 8 8 7 6 6 5 6 5 4 4 4 4 3 2 2 1 2 2 2 1 1 2 3 3 3 2 3 3 3 4 4 4 3 4 4
9 8 7 6 8 7 5 3 5 6 7 7 7 7 7 7 6 6 5 4 4 4 3 3 3 3 3 3 2 2 2 2 2 2 1 1 2 2 3 3 2 3 2 2 3 4 4 4 4
7 9 11 10 10 7 6 4 5 6 5 3 5 7 6 6 6 5 4 4 3 2 3 2 2 2 2 2 3 4 4 4 3 2 2 2 2 3 3 2 2 2 2 2 3 2 3 4 4
8 7 10 12 11 8 7 5 2 6 4 6 6 6 6 5 5 4 3 2 1 1 1 1 2 1 1 2 3 4 4 4 4 4 4 4 3 3 3 2 2 1 2 2 2 2 2 3 4
9 9 8 8 8 7 4 2 2 6 9 8 6 6 5 4 3 2 1 1 0 2 1 0 0 0 2 3 4 4 5 6 6 6 6 5 4 3 3 2 1 1 1 2 2 2 3 3 4
9 8 5 6 2 6 6 1 3 7 8 6 6 5 4 3 2 2 2 1 1 2 2 2 2 2 3 4 4 5 5 6 7 8 6 5 4 3 3 3 2 2 2 2 3 3 3 4 5
7 7 4 6 6 3 5 1 2 6 7 7 5 3 2 3 3 3 3 3 4 4 3 4 3 3 3 4 5 5 6 6 5 6 6 6 5 5 4 3 3 3 3 4 3 3 4 3 3
7 8 10 9 7 2 7 5 1 2 4 5 4 4 5 5 4 5 6 6 6 6 5 4 4 4 4 5 6 6 6 6 6 7 7 6 6 7 5 4 4 5 5 4 4 4 4 4 4
8 10 8 7 8 6 6 5 2 2 5 6 6 7 7 7 7 7 6 6 5 5 5 5 5 5 5 5 6 8 6 6 7 7 7 7 7 8 7 7 7 6 6 6 5 5 5 6 5
8 9 8 8 8 8 5 5 4 5 5 6 8 8 9 10 10 10 9 9 8 8 8 7 7 6 6 6 6 7 7 7 7 6 7 7 7 7 7 7 7 7 7 7 7 7 7 7 6
6 7 8 7 8 7 5 6 4 5 6 8 9 10 11 10 10 10 10 10 10 9 9 9 8 8 8 7 7 7 7 7 7 8 8 8 8 8 8 8 8 8 8 7 8 8 8 7 7
Wind_Direction
181 201 215 233 243 249 290 345 25 42 45 48 40 27 50 49 43 74 116 126 117 122 132 138 138 139 139 138 140 143 146 148 148 146 145 145 144 141 137 134 131 125 117 112 111 107 106 106 107
194 204 216 237 244 262 314 353 19 43 42 38 51 47 58 60 61 98 110 118 118 125 137 140 141 141 141 140 141 144 147 150 152 151 150 151 150 148 147 144 141 136 128 124 122 118 117 116 117
223 222 241 240 237 242 278 8 23 57 51 32 55 65 58 63 69 90 115 126 123 130 136 136 145 144 143 143 144 147 150 153 155 156 156 156 156 158 157 153 149 146 140 136 136 132 130 129 130
228 223 241 253 275 288 337 19 7 30 52 38 49 80 77 64 80 107 128 130 128 134 134 140 146 146 147 147 148 151 153 155 157 159 161 162 164 166 164 159 158 159 153 150 149 147 145 145 147
238 252 244 257 275 290 349 25 360 12 20 18 52 88 85 86 101 120 136 135 140 137 132 143 148 148 150 151 153 156 158 160 163 165 167 169 171 174 175 173 172 171 168 166 164 163 161 163 167
245 250 266 280 283 283 356 24 349 16 18 18 27 87 96 110 120 137 140 146 143 133 133 140 147 149 152 155 158 161 164 167 170 173 176 179 180 183 186 184 182 181 181 179 178 177 177 181 185
255 279 287 290 290 297 358 10 356 358 15 15 26 93 110 120 132 133 139 155 138 131 132 144 149 153 158 162 165 169 172 175 179 182 185 188 192 194 196 194 193 192 192 193 192 193 193 193 196
262 283 285 285 292 312 7 356 347 341 30 17 15 86 122 138 144 138 153 152 134 132 139 149 152 157 164 169 175 178 181 184 188 192 196 199 203 207 209 206 203 203 202 202 203 205 207 205 205
256 264 272 280 302 318 344 334 341 1 359 50 45 68 118 142 150 146 153 151 139 136 142 152 154 163 173 176 174 180 187 191 195 200 205 208 214 212 209 216 205 203 205 207 210 211 214 214 214
240 256 269 285 310 317 323 321 325 319 1 50 55 68 104 132 147 152 160 160 150 145 150 157 156 166 179 182 158 181 189 187 200 202 197 205 220 230 223 202 200 202 206 210 213 216 218 218 221
244 253 273 289 302 311 311 313 321 332 14 38 47 53 107 145 158 160 164 159 142 149 156 150 147 164 179 168 157 189 194 177 197 212 197 205 218 225 228 194 189 199 207 213 214 214 219 218 220
250 255 267 280 293 297 297 300 318 358 26 51 68 60 53 139 169 161 155 155 145 160 160 148 141 148 176 173 166 187 196 172 193 197 204 206 214 245 250 212 184 189 202 209 215 207 212 219 223
261 260 261 264 269 272 278 283 295 18 41 61 73 69 56 57 77 113 132 136 131 145 159 131 126 133 134 3 331 244 235 200 202 175 187 204 207 227 249 255 232 230 220 206 208 214 216 218 225
277 277 275 272 268 266 266 263 264 57 70 74 70 61 51 50 51 56 64 72 99 133 141 120 109 105 107 61 320 324 325 345 319 319 209 203 228 223 228 243 239 244 249 244 213 213 216 218 220
267 267 263 252 243 233 239 229 100 94 89 84 77 68 58 52 52 51 55 61 61 87 88 89 100 93 97 58 314 301 295 299 309 325 302 251 247 238 237 243 233 229 237 242 238 232 223 219 219
261 255 254 239 218 196 220 144 103 111 99 90 85 81 71 59 56 53 54 54 50 52 60 61 63 84 85 65 354 319 323 337 339 340 336 313 292 279 262 260 249 232 232 235 231 231 238 234 229
249 247 247 215 197 190 190 126 135 125 116 104 95 91 87 77 65 56 56 59 58 59 61 61 56 56 57 55 7 322 329 320 315 324 333 322 305 295 278 271 269 253 243 237 240 223 221 231 231
279 273 260 212 177 191 148 138 135 115 116 116 111 102 92 86 72 63 62 65 64 64 66 65 68 58 39 34 3 342 331 331 341 348 343 319 301 298 292 272 257 256 253 247 238 233 228 228 225
290 285 269 188 195 212 189 146 133 124 111 113 114 112 105 97 93 84 75 71 73 68 67 64 63 56 42 32 355 341 343 340 333 320 345 328 305 299 286 291 289 260 250 252 248 237 232 223 215
276 280 289 291 238 225 185 155 116 102 100 103 110 117 122 121 113 103 98 87 84 83 78 80 64 49 29 24 330 298 301 284 270 298 329 313 308 300 290 304 297 276 255 248 250 235 237 237 212
273 289 287 270 262 253 197 131 96 100 95 113 125 125 125 125 120 117 109 99 91 85 72 62 60 53 27 357 333 336 321 305 311 317 296 306 310 302 287 294 291 291 280 262 258 234 230 239 232
290 306 296 282 271 263 241 187 141 116 110 160 151 136 129 121 121 113 106 98 87 87 93 97 90 68 24 345 338 326 311 306 305 306 310 313 291 286 285 283 290 302 304 300 287 282 251 244 245
288 278 294 306 307 302 12 29 109 116 157 204 171 138 123 118 111 101 92 85 63 49 92 109 97 71 345 316 309 309 312 316 318 318 305 296 281 265 256 240 250 269 279 298 317 325 299 263 260
298 290 305 353 355 342 328 44 208 184 190 187 159 134 122 112 97 84 80 112 289 295 289 64 122 274 282 290 301 304 309 310 308 301 293 286 275 263 260 258 242 257 264 289 297 293 286 281 273
315 311 329 355 21 255 255 197 212 159 159 148 124 117 113 112 85 45 341 303 295 304 340 339 324 303 296 296 297 300 303 301 289 282 285 289 291 291 286 289 278 275 266 260 263 265 262 268 278
303 314 315 299 275 206 172 187 10 76 103 102 101 100 86 60 44 10 334 336 334 337 345 331 324 311 302 296 294 291 286 283 285 295 308 302 292 286 278 271 267 263 264 267 254 263 266 262 262
327 329 323 308 316 63 126 120 125 47 50 51 52 50 36 24 5 352 349 349 348 344 341 325 315 312 303 297 293 280 273 280 288 290 286 284 283 287 288 286 277 266 257 254 252 247 252 253 249
337 345 348 343 343 349 93 99 104 50 17 8 13 22 21 9 357 356 353 352 351 345 341 338 331 322 312 305 298 302 302 294 283 281 277 275 277 280 278 270 264 260 257 253 247 249 247 243 239
1 6 360 349 355 338 23 86 95 57 23 8 13 17 13 5 356 354 356 359 354 347 340 338 334 329 324 317 311 306 301 295 293 288 285 283 280 276 273 270 268 264 256 250 245 245 248 245 244
8 17 8 357 345 333 3 98 67 60 45 26 14 13 10 358 353 353 353 353 347 342 339 337 335 328 324 320 313 305 301 302 302 300 297 296 291 284 278 270 265 262 261 252 245 244 247 244 241